Location: Newark
(41.9364°N, 2.8061°E)
Time: 09:40:31
(UTC+00:00)

Transit 4A - Visible Passes

Search period start: 28 February 2020 00:00
Search period end: 09 March 2020 00:00
Orbit: 872 x 973 km, 66.8° (Epoch: 27 February)

Date Brightness Start Highest point End Pass type
(mag) Time Alt. Az. Time Alt. Az. Time Alt. Az.
01 Mar 10.4 04:47:27 10° N 04:49:49 12° NNE 04:52:11 10° ENE visible
02 Mar 10.2 04:55:59 10° N 04:59:37 16° NE 05:03:16 10° ENE visible
03 Mar 10.0 05:04:50 10° N 05:09:19 22° NE 05:13:52 10° E visible
04 Mar 9.6 05:13:49 10° NNW 05:18:57 30° NE 05:24:08 10° ESE visible
05 Mar 10.6 03:39:38 10° NNE 03:40:28 10° NNE 03:41:18 10° NE visible
05 Mar 9.1 05:22:56 10° NNW 05:28:29 42° NE 05:34:07 10° ESE visible
06 Mar 10.4 03:47:26 10° N 03:50:20 14° NE 03:53:15 10° ENE visible
06 Mar 8.4 05:32:06 10° NNW 05:37:56 61° ENE 05:43:50 10° SE visible
07 Mar 10.3 03:56:07 10° N 04:00:07 18° NE 04:04:07 10° E visible
07 Mar 7.9 05:41:22 10° NNW 05:47:17 87° ENE 05:53:18 10° SSE visible
07 Mar 10.2 20:48:26 10° SW 20:48:37 11° SW 20:48:37 11° SW visible
08 Mar 9.9 04:05:02 10° N 04:09:47 25° NE 04:14:35 10° E visible
08 Mar 8.7 19:12:55 10° SSE 19:16:51 25° ESE 19:16:51 25° ESE visible
08 Mar 9.4 20:58:02 10° SW 21:00:35 26° WSW 21:00:35 26° WSW visible
